Data supplied by UK-AIR on 17/3/2021
All Data GMT hour ending 
Status: R =Ratified P=Provisional,P*=As supplied
,,Chesterfield Loundsley Green,,,,,,,,,,,,,,,,,,,,,,,
Date,time,"PM<sub>10</sub> particulate matter (Hourly measured)",status,unit,"Nitric oxide",status,unit,"Nitrogen dioxide",status,unit,"Nitrogen oxides as nitrogen dioxide",status,unit,"PM<sub>2.5</sub> particulate matter (Hourly measured)",status,unit
 
01-01-2020,01:00,37.625,R,ugm-3 (FIDAS),0.69804,R,ugm-3,14.30532,R,ugm-3,15.37563,R,ugm-3,30.047,R,ugm-3 (Ref.eq)
01-01-2020,02:00,32.550,R,ugm-3 (FIDAS),0.51190,R,ugm-3,15.23437,R,ugm-3,16.01926,R,ugm-3,27.547,R,ugm-3 (Ref.eq)
01-01-2020,03:00,36.100,R,ugm-3 (FIDAS),0.55843,R,ugm-3,15.44907,R,ugm-3,16.30532,R,ugm-3,30.071,R,ugm-3 (Ref.eq)
01-01-2020,04:00,35.475,R,ugm-3 (FIDAS),0.48863,R,ugm-3,14.37611,R,ugm-3,15.12533,R,ugm-3,31.085,R,ugm-3 (Ref.eq)
01-01-2020,05:00,23.775,R,ugm-3 (FIDAS),0.48863,R,ugm-3,10.88978,R,ugm-3,11.63900,R,ugm-3,20.260,R,ugm-3 (Ref.eq)
01-01-2020,06:00,17.300,R,ugm-3 (FIDAS),0.31412,R,ugm-3,6.33012,R,ugm-3,6.81176,R,ugm-3,14.552,R,ugm-3 (Ref.eq)
01-01-2020,07:00,19.325,R,ugm-3 (FIDAS),0.52353,R,ugm-3,8.04719,R,ugm-3,8.84993,R,ugm-3,16.109,R,ugm-3 (Ref.eq)
01-01-2020,08:00,18.700,R,ugm-3 (FIDAS),0.94235,R,ugm-3,10.46226,R,ugm-3,11.90718,R,ugm-3,15.778,R,ugm-3 (Ref.eq)
01-01-2020,09:00,17.725,R,ugm-3 (FIDAS),1.64039,R,ugm-3,12.44919,R,ugm-3,14.96442,R,ugm-3,14.859,R,ugm-3 (Ref.eq)
01-01-2020,10:00,20.075,R,ugm-3 (FIDAS),4.99098,R,ugm-3,15.67890,R,ugm-3,23.33163,R,ugm-3,16.816,R,ugm-3 (Ref.eq)
01-01-2020,11:00,30.025,R,ugm-3 (FIDAS),3.00157,R,ugm-3,15.56477,R,ugm-3,20.16711,R,ugm-3,25.967,R,ugm-3 (Ref.eq)
01-01-2020,12:00,35.350,R,ugm-3 (FIDAS),4.46745,R,ugm-3,14.65801,R,ugm-3,21.50801,R,ugm-3,30.590,R,ugm-3 (Ref.eq)
01-01-2020,13:00,38.975,R,ugm-3 (FIDAS),3.52510,R,ugm-3,18.35564,R,ugm-3,23.76071,R,ugm-3,34.033,R,ugm-3 (Ref.eq)
01-01-2020,14:00,37.600,R,ugm-3 (FIDAS),2.47804,R,ugm-3,16.74295,R,ugm-3,20.54256,R,ugm-3,32.972,R,ugm-3 (Ref.eq)
01-01-2020,15:00,32.725,R,ugm-3 (FIDAS),2.05922,R,ugm-3,13.30881,R,ugm-3,16.46623,R,ugm-3,28.561,R,ugm-3 (Ref.eq)
01-01-2020,16:00,26.925,R,ugm-3 (FIDAS),1.25647,R,ugm-3,8.90790,R,ugm-3,10.83446,R,ugm-3,23.137,R,ugm-3 (Ref.eq)
01-01-2020,17:00,28.250,R,ugm-3 (FIDAS),1.36118,R,ugm-3,11.96551,R,ugm-3,14.05261,R,ugm-3,23.703,R,ugm-3 (Ref.eq)
01-01-2020,18:00,30.025,R,ugm-3 (FIDAS),1.25647,R,ugm-3,13.41331,R,ugm-3,15.33987,R,ugm-3,25.543,R,ugm-3 (Ref.eq)
01-01-2020,19:00,29.625,R,ugm-3 (FIDAS),1.01216,R,ugm-3,11.26704,R,ugm-3,12.81899,R,ugm-3,24.906,R,ugm-3 (Ref.eq)
01-01-2020,20:00,25.125,R,ugm-3 (FIDAS),0.97726,R,ugm-3,8.74603,R,ugm-3,10.24446,R,ugm-3,22.311,R,ugm-3 (Ref.eq)
01-01-2020,21:00,23.750,R,ugm-3 (FIDAS),1.46588,R,ugm-3,10.78588,R,ugm-3,13.03353,R,ugm-3,21.580,R,ugm-3 (Ref.eq)
01-01-2020,22:00,24.950,R,ugm-3 (FIDAS),0.80275,R,ugm-3,12.66085,R,ugm-3,13.89170,R,ugm-3,22.217,R,ugm-3 (Ref.eq)
01-01-2020,23:00,22.775,R,ugm-3 (FIDAS),0.52353,R,ugm-3,12.12353,R,ugm-3,12.92626,R,ugm-3,20.873,R,ugm-3 (Ref.eq)
01-01-2020,24:00,20.400,R,ugm-3 (FIDAS),0.45373,R,ugm-3,10.13875,R,ugm-3,10.83446,R,ugm-3,18.538,R,ugm-3 (Ref.eq)
02-01-2020,01:00,15.775,R,ugm-3 (FIDAS),0.32655,R,ugm-3,8.02950,R,ugm-3,8.53021,R,ugm-3,14.481,R,ugm-3 (Ref.eq)
02-01-2020,02:00,12.975,R,ugm-3 (FIDAS),0.27990,R,ugm-3,5.30542,R,ugm-3,5.73459,R,ugm-3,11.533,R,ugm-3 (Ref.eq)
02-01-2020,03:00,10.025,R,ugm-3 (FIDAS),0.27990,R,ugm-3,3.11911,R,ugm-3,3.54828,R,ugm-3,8.420,R,ugm-3 (Ref.eq)
02-01-2020,04:00,8.550,R,ugm-3 (FIDAS),0.20992,R,ugm-3,2.58126,R,ugm-3,2.90314,R,ugm-3,7.005,R,ugm-3 (Ref.eq)
02-01-2020,05:00,9.300,R,ugm-3 (FIDAS),0.27990,R,ugm-3,2.85030,R,ugm-3,3.27947,R,ugm-3,7.901,R,ugm-3 (Ref.eq)
02-01-2020,06:00,9.775,R,ugm-3 (FIDAS),0.45484,R,ugm-3,3.17345,R,ugm-3,3.87085,R,ugm-3,7.854,R,ugm-3 (Ref.eq)
02-01-2020,07:00,8.925,R,ugm-3 (FIDAS),0.41985,R,ugm-3,3.76471,R,ugm-3,4.40847,R,ugm-3,7.123,R,ugm-3 (Ref.eq)
02-01-2020,08:00,8.400,R,ugm-3 (FIDAS),0.87468,R,ugm-3,5.59411,R,ugm-3,6.93527,R,ugm-3,6.675,R,ugm-3 (Ref.eq)
02-01-2020,09:00,8.975,R,ugm-3 (FIDAS),1.53944,R,ugm-3,7.90806,R,ugm-3,10.26850,R,ugm-3,6.745,R,ugm-3 (Ref.eq)
02-01-2020,10:00,9.325,R,ugm-3 (FIDAS),1.36451,R,ugm-3,8.76767,R,ugm-3,10.85988,R,ugm-3,6.486,R,ugm-3 (Ref.eq)
02-01-2020,11:00,9.025,R,ugm-3 (FIDAS),1.46947,R,ugm-3,8.17664,R,ugm-3,10.42979,R,ugm-3,6.179,R,ugm-3 (Ref.eq)
02-01-2020,12:00,9.325,R,ugm-3 (FIDAS),1.32952,R,ugm-3,7.04718,R,ugm-3,9.08574,R,ugm-3,5.637,R,ugm-3 (Ref.eq)
02-01-2020,13:00,8.375,R,ugm-3 (FIDAS),1.29453,R,ugm-3,6.56321,R,ugm-3,8.54813,R,ugm-3,5.118,R,ugm-3 (Ref.eq)
02-01-2020,14:00,8.450,R,ugm-3 (FIDAS),1.25954,R,ugm-3,5.91795,R,ugm-3,7.84922,R,ugm-3,5.024,R,ugm-3 (Ref.eq)
02-01-2020,15:00,7.875,R,ugm-3 (FIDAS),0.76972,R,ugm-3,6.99157,R,ugm-3,8.17179,R,ugm-3,4.552,R,ugm-3 (Ref.eq)
02-01-2020,16:00,8.900,R,ugm-3 (FIDAS),0.97965,R,ugm-3,7.63740,R,ugm-3,9.13951,R,ugm-3,5.118,R,ugm-3 (Ref.eq)
02-01-2020,17:00,7.850,R,ugm-3 (FIDAS),1.08461,R,ugm-3,7.58399,R,ugm-3,9.24703,R,ugm-3,4.811,R,ugm-3 (Ref.eq)
02-01-2020,18:00,7.025,R,ugm-3 (FIDAS),1.08461,R,ugm-3,8.39042,R,ugm-3,10.05346,R,ugm-3,4.788,R,ugm-3 (Ref.eq)
02-01-2020,19:00,8.550,R,ugm-3 (FIDAS),0.62977,R,ugm-3,8.01258,R,ugm-3,8.97822,R,ugm-3,5.401,R,ugm-3 (Ref.eq)
02-01-2020,20:00,8.300,R,ugm-3 (FIDAS),0.69975,R,ugm-3,6.61501,R,ugm-3,7.68794,R,ugm-3,5.684,R,ugm-3 (Ref.eq)
02-01-2020,21:00,6.075,R,ugm-3 (FIDAS),0.52481,R,ugm-3,4.94782,R,ugm-3,5.75251,R,ugm-3,4.575,R,ugm-3 (Ref.eq)
02-01-2020,22:00,4.500,R,ugm-3 (FIDAS),0.45484,R,ugm-3,3.71106,R,ugm-3,4.40847,R,ugm-3,3.325,R,ugm-3 (Ref.eq)
02-01-2020,23:00,3.750,R,ugm-3 (FIDAS),0.31489,R,ugm-3,3.33427,R,ugm-3,3.81709,R,ugm-3,3.184,R,ugm-3 (Ref.eq)
02-01-2020,24:00,4.450,R,ugm-3 (FIDAS),0.34987,R,ugm-3,3.22686,R,ugm-3,3.76333,R,ugm-3,3.467,R,ugm-3 (Ref.eq)
03-01-2020,01:00,4.375,R,ugm-3 (FIDAS),0.23382,R,ugm-3,2.37179,R,ugm-3,2.73031,R,ugm-3,3.019,R,ugm-3 (Ref.eq)
03-01-2020,02:00,4.300,R,ugm-3 (FIDAS),0.23382,R,ugm-3,2.29994,R,ugm-3,2.65846,R,ugm-3,2.995,R,ugm-3 (Ref.eq)
03-01-2020,03:00,3.675,R,ugm-3 (FIDAS),0.21044,R,ugm-3,2.04839,R,ugm-3,2.37106,R,ugm-3,2.335,R,ugm-3 (Ref.eq)
03-01-2020,04:00,5.125,R,ugm-3 (FIDAS),0.10522,R,ugm-3,1.23975,R,ugm-3,1.40108,R,ugm-3,3.373,R,ugm-3 (Ref.eq)
03-01-2020,05:00,3.475,R,ugm-3 (FIDAS),0.14029,R,ugm-3,1.67096,R,ugm-3,1.88607,R,ugm-3,2.453,R,ugm-3 (Ref.eq)
03-01-2020,06:00,4.075,R,ugm-3 (FIDAS),0.24551,R,ugm-3,2.37183,R,ugm-3,2.74827,R,ugm-3,3.349,R,ugm-3 (Ref.eq)
03-01-2020,07:00,6.725,R,ugm-3 (FIDAS),0.28058,R,ugm-3,1.50974,R,ugm-3,1.93996,R,ugm-3,5.071,R,ugm-3 (Ref.eq)
03-01-2020,08:00,6.525,R,ugm-3 (FIDAS),0.38580,R,ugm-3,2.15672,R,ugm-3,2.74827,R,ugm-3,4.009,R,ugm-3 (Ref.eq)
03-01-2020,09:00,6.875,R,ugm-3 (FIDAS),0.24551,R,ugm-3,2.15628,R,ugm-3,2.53272,R,ugm-3,3.915,R,ugm-3 (Ref.eq)
03-01-2020,10:00,8.250,R,ugm-3 (FIDAS),0.45594,R,ugm-3,3.28858,R,ugm-3,3.98769,R,ugm-3,4.552,R,ugm-3 (Ref.eq)
03-01-2020,11:00,9.375,R,ugm-3 (FIDAS),0.70145,R,ugm-3,5.60652,R,ugm-3,6.68207,R,ugm-3,4.953,R,ugm-3 (Ref.eq)
03-01-2020,12:00,10.300,R,ugm-3 (FIDAS),1.29769,R,ugm-3,7.92557,R,ugm-3,9.91533,R,ugm-3,5.967,R,ugm-3 (Ref.eq)
03-01-2020,13:00,12.250,R,ugm-3 (FIDAS),1.71856,R,ugm-3,10.45961,R,ugm-3,13.09470,R,ugm-3,7.005,R,ugm-3 (Ref.eq)
03-01-2020,14:00,12.550,R,ugm-3 (FIDAS),1.29769,R,ugm-3,9.21887,R,ugm-3,11.20863,R,ugm-3,6.415,R,ugm-3 (Ref.eq)
03-01-2020,15:00,9.300,R,ugm-3 (FIDAS),0.77160,R,ugm-3,6.90005,R,ugm-3,8.08315,R,ugm-3,5.472,R,ugm-3 (Ref.eq)
03-01-2020,16:00,11.925,R,ugm-3 (FIDAS),0.63131,R,ugm-3,8.19291,R,ugm-3,9.16090,R,ugm-3,6.132,R,ugm-3 (Ref.eq)
03-01-2020,17:00,11.125,R,ugm-3 (FIDAS),0.56116,R,ugm-3,6.62995,R,ugm-3,7.49039,R,ugm-3,6.179,R,ugm-3 (Ref.eq)
03-01-2020,18:00,11.700,R,ugm-3 (FIDAS),0.52609,R,ugm-3,7.70759,R,ugm-3,8.51425,R,ugm-3,5.967,R,ugm-3 (Ref.eq)
03-01-2020,19:00,14.500,R,ugm-3 (FIDAS),0.70145,R,ugm-3,8.89367,R,ugm-3,9.96922,R,ugm-3,7.193,R,ugm-3 (Ref.eq)
03-01-2020,20:00,13.775,R,ugm-3 (FIDAS),0.45594,R,ugm-3,7.49182,R,ugm-3,8.19092,R,ugm-3,7.547,R,ugm-3 (Ref.eq)
03-01-2020,21:00,15.525,R,ugm-3 (FIDAS),0.35073,R,ugm-3,6.52151,R,ugm-3,7.05928,R,ugm-3,8.703,R,ugm-3 (Ref.eq)
03-01-2020,22:00,19.175,R,ugm-3 (FIDAS),0.24551,R,ugm-3,6.35952,R,ugm-3,6.73596,R,ugm-3,11.462,R,ugm-3 (Ref.eq)
03-01-2020,23:00,13.325,R,ugm-3 (FIDAS),0.28058,R,ugm-3,3.44969,R,ugm-3,3.87991,R,ugm-3,8.467,R,ugm-3 (Ref.eq)
03-01-2020,24:00,8.475,R,ugm-3 (FIDAS),0.24551,R,ugm-3,3.23403,R,ugm-3,3.61047,R,ugm-3,5.354,R,ugm-3 (Ref.eq)
04-01-2020,01:00,7.875,R,ugm-3 (FIDAS),0.18751,R,ugm-3,2.37716,R,ugm-3,2.66467,R,ugm-3,4.764,R,ugm-3 (Ref.eq)
04-01-2020,02:00,7.125,R,ugm-3 (FIDAS),0.18751,R,ugm-3,2.08909,R,ugm-3,2.37660,R,ugm-3,4.175,R,ugm-3 (Ref.eq)
04-01-2020,03:00,6.150,R,ugm-3 (FIDAS),0.10547,R,ugm-3,0.97256,R,ugm-3,1.13429,R,ugm-3,3.443,R,ugm-3 (Ref.eq)
04-01-2020,04:00,6.625,R,ugm-3 (FIDAS),0.14063,R,ugm-3,1.29675,R,ugm-3,1.51238,R,ugm-3,3.939,R,ugm-3 (Ref.eq)
04-01-2020,05:00,6.100,R,ugm-3 (FIDAS),0.14063,R,ugm-3,1.51280,R,ugm-3,1.72843,R,ugm-3,3.325,R,ugm-3 (Ref.eq)
04-01-2020,06:00,6.550,R,ugm-3 (FIDAS),0.17579,R,ugm-3,1.62093,R,ugm-3,1.89047,R,ugm-3,3.396,R,ugm-3 (Ref.eq)
04-01-2020,07:00,6.150,R,ugm-3 (FIDAS),0.14063,R,ugm-3,2.37702,R,ugm-3,2.59265,R,ugm-3,3.420,R,ugm-3 (Ref.eq)
04-01-2020,08:00,5.475,R,ugm-3 (FIDAS),0.21095,R,ugm-3,3.24144,R,ugm-3,3.56489,R,ugm-3,3.467,R,ugm-3 (Ref.eq)
04-01-2020,09:00,5.950,R,ugm-3 (FIDAS),0.21095,R,ugm-3,4.15967,R,ugm-3,4.48312,R,ugm-3,3.868,R,ugm-3 (Ref.eq)
04-01-2020,10:00,6.600,R,ugm-3 (FIDAS),0.42190,R,ugm-3,5.83472,R,ugm-3,6.48162,R,ugm-3,4.575,R,ugm-3 (Ref.eq)
04-01-2020,11:00,7.200,R,ugm-3 (FIDAS),0.70316,R,ugm-3,8.21216,R,ugm-3,9.29033,R,ugm-3,4.717,R,ugm-3 (Ref.eq)
04-01-2020,12:00,5.125,R,ugm-3 (FIDAS),0.77348,R,ugm-3,5.88979,R,ugm-3,7.07577,R,ugm-3,2.807,R,ugm-3 (Ref.eq)
04-01-2020,13:00,4.875,R,ugm-3 (FIDAS),1.26569,R,ugm-3,8.05181,R,ugm-3,9.99250,R,ugm-3,2.618,R,ugm-3 (Ref.eq)
04-01-2020,14:00,3.875,R,ugm-3 (FIDAS),0.70316,R,ugm-3,5.45747,R,ugm-3,6.53564,R,ugm-3,2.146,R,ugm-3 (Ref.eq)
04-01-2020,15:00,4.300,R,ugm-3 (FIDAS),0.42190,R,ugm-3,4.86248,R,ugm-3,5.50938,R,ugm-3,2.571,R,ugm-3 (Ref.eq)
04-01-2020,16:00,5.575,R,ugm-3 (FIDAS),0.52737,R,ugm-3,7.67150,R,ugm-3,8.48012,R,ugm-3,3.090,R,ugm-3 (Ref.eq)
04-01-2020,17:00,5.775,R,ugm-3 (FIDAS),0.38674,R,ugm-3,6.75285,R,ugm-3,7.34584,R,ugm-3,3.538,R,ugm-3 (Ref.eq)
04-01-2020,18:00,8.575,R,ugm-3 (FIDAS),1.58211,R,ugm-3,11.99574,R,ugm-3,14.42161,R,ugm-3,5.802,R,ugm-3 (Ref.eq)
04-01-2020,19:00,9.750,R,ugm-3 (FIDAS),1.05474,R,ugm-3,12.26423,R,ugm-3,13.88148,R,ugm-3,7.571,R,ugm-3 (Ref.eq)
04-01-2020,20:00,9.875,R,ugm-3 (FIDAS),1.08990,R,ugm-3,10.75196,R,ugm-3,12.42311,R,ugm-3,7.759,R,ugm-3 (Ref.eq)
04-01-2020,21:00,8.700,R,ugm-3 (FIDAS),0.80864,R,ugm-3,10.53506,R,ugm-3,11.77495,R,ugm-3,6.934,R,ugm-3 (Ref.eq)
04-01-2020,22:00,7.125,R,ugm-3 (FIDAS),0.24611,R,ugm-3,7.29256,R,ugm-3,7.66992,R,ugm-3,5.566,R,ugm-3 (Ref.eq)
04-01-2020,23:00,7.125,R,ugm-3 (FIDAS),0.24611,R,ugm-3,5.88821,R,ugm-3,6.26557,R,ugm-3,5.708,R,ugm-3 (Ref.eq)
04-01-2020,24:00,5.675,R,ugm-3 (FIDAS),0.17579,R,ugm-3,3.99753,R,ugm-3,4.26707,R,ugm-3,4.340,R,ugm-3 (Ref.eq)
05-01-2020,01:00,3.875,R,ugm-3 (FIDAS),0.14097,R,ugm-3,3.82625,R,ugm-3,4.04241,R,ugm-3,2.972,R,ugm-3 (Ref.eq)
05-01-2020,02:00,5.125,R,ugm-3 (FIDAS),0.18796,R,ugm-3,2.74360,R,ugm-3,3.03181,R,ugm-3,3.939,R,ugm-3 (Ref.eq)
05-01-2020,03:00,5.400,R,ugm-3 (FIDAS),0.17622,R,ugm-3,4.27751,R,ugm-3,4.54771,R,ugm-3,3.821,R,ugm-3 (Ref.eq)
05-01-2020,04:00,4.850,R,ugm-3 (FIDAS),0.10573,R,ugm-3,3.35694,R,ugm-3,3.51906,R,ugm-3,3.868,R,ugm-3 (Ref.eq)
05-01-2020,05:00,3.675,R,ugm-3 (FIDAS),0.21146,R,ugm-3,2.16618,R,ugm-3,2.49041,R,ugm-3,2.925,R,ugm-3 (Ref.eq)
05-01-2020,06:00,3.000,R,ugm-3 (FIDAS),0.14097,R,ugm-3,2.76151,R,ugm-3,2.97767,R,ugm-3,2.217,R,ugm-3 (Ref.eq)
05-01-2020,07:00,2.675,R,ugm-3 (FIDAS),0.17622,R,ugm-3,4.00682,R,ugm-3,4.27701,R,ugm-3,1.958,R,ugm-3 (Ref.eq)
05-01-2020,08:00,2.700,R,ugm-3 (FIDAS),0.24670,R,ugm-3,3.62804,R,ugm-3,4.00632,R,ugm-3,1.792,R,ugm-3 (Ref.eq)
05-01-2020,09:00,3.250,R,ugm-3 (FIDAS),0.35244,R,ugm-3,4.44043,R,ugm-3,4.98082,R,ugm-3,1.958,R,ugm-3 (Ref.eq)
05-01-2020,10:00,2.275,R,ugm-3 (FIDAS),0.52865,R,ugm-3,4.98233,R,ugm-3,5.79292,R,ugm-3,1.439,R,ugm-3 (Ref.eq)
05-01-2020,11:00,1.625,R,ugm-3 (FIDAS),0.74011,R,ugm-3,4.76637,R,ugm-3,5.90119,R,ugm-3,1.156,R,ugm-3 (Ref.eq)
05-01-2020,12:00,2.325,R,ugm-3 (FIDAS),0.88109,R,ugm-3,5.03747,R,ugm-3,6.38845,R,ugm-3,1.274,R,ugm-3 (Ref.eq)
05-01-2020,13:00,3.625,R,ugm-3 (FIDAS),1.26876,R,ugm-3,6.12136,R,ugm-3,8.06677,R,ugm-3,2.476,R,ugm-3 (Ref.eq)
05-01-2020,14:00,4.825,R,ugm-3 (FIDAS),1.09255,R,ugm-3,7.04123,R,ugm-3,8.71644,R,ugm-3,3.373,R,ugm-3 (Ref.eq)
05-01-2020,15:00,2.775,R,ugm-3 (FIDAS),1.12779,R,ugm-3,6.17510,R,ugm-3,7.90435,R,ugm-3,2.123,R,ugm-3 (Ref.eq)
05-01-2020,16:00,2.150,R,ugm-3 (FIDAS),0.81060,R,ugm-3,4.60415,R,ugm-3,5.84705,R,ugm-3,1.415,R,ugm-3 (Ref.eq)
05-01-2020,17:00,4.425,R,ugm-3 (FIDAS),0.84584,R,ugm-3,6.17430,R,ugm-3,7.47124,R,ugm-3,3.396,R,ugm-3 (Ref.eq)
05-01-2020,18:00,4.500,R,ugm-3 (FIDAS),0.66962,R,ugm-3,5.84896,R,ugm-3,6.87570,R,ugm-3,3.703,R,ugm-3 (Ref.eq)
05-01-2020,19:00,4.175,R,ugm-3 (FIDAS),0.38768,R,ugm-3,4.22398,R,ugm-3,4.81841,R,ugm-3,3.278,R,ugm-3 (Ref.eq)
05-01-2020,20:00,3.800,R,ugm-3 (FIDAS),0.49341,R,ugm-3,4.92809,R,ugm-3,5.68464,R,ugm-3,2.925,R,ugm-3 (Ref.eq)
05-01-2020,21:00,4.150,R,ugm-3 (FIDAS),0.38768,R,ugm-3,3.62844,R,ugm-3,4.22287,R,ugm-3,3.255,R,ugm-3 (Ref.eq)
05-01-2020,22:00,4.300,R,ugm-3 (FIDAS),0.21146,R,ugm-3,3.30311,R,ugm-3,3.62734,R,ugm-3,3.184,R,ugm-3 (Ref.eq)
05-01-2020,23:00,4.000,R,ugm-3 (FIDAS),0.14097,R,ugm-3,2.32839,R,ugm-3,2.54455,R,ugm-3,3.090,R,ugm-3 (Ref.eq)
05-01-2020,24:00,5.225,R,ugm-3 (FIDAS),0.10573,R,ugm-3,2.32830,R,ugm-3,2.49041,R,ugm-3,4.057,R,ugm-3 (Ref.eq)
06-01-2020,01:00,10.675,R,ugm-3 (FIDAS),0.09421,R,ugm-3,4.19677,R,ugm-3,4.34122,R,ugm-3,8.420,R,ugm-3 (Ref.eq)
06-01-2020,02:00,9.625,R,ugm-3 (FIDAS),0.14132,R,ugm-3,3.03924,R,ugm-3,3.25592,R,ugm-3,7.689,R,ugm-3 (Ref.eq)
06-01-2020,03:00,5.125,R,ugm-3 (FIDAS),0.10599,R,ugm-3,1.95384,R,ugm-3,2.11635,R,ugm-3,3.703,R,ugm-3 (Ref.eq)
06-01-2020,04:00,4.050,R,ugm-3 (FIDAS),0.10599,R,ugm-3,1.46545,R,ugm-3,1.62796,R,ugm-3,2.972,R,ugm-3 (Ref.eq)
06-01-2020,05:00,4.625,R,ugm-3 (FIDAS),0.10599,R,ugm-3,1.24839,R,ugm-3,1.41090,R,ugm-3,3.325,R,ugm-3 (Ref.eq)
06-01-2020,06:00,6.650,R,ugm-3 (FIDAS),0.14132,R,ugm-3,2.17099,R,ugm-3,2.38767,R,ugm-3,4.458,R,ugm-3 (Ref.eq)
06-01-2020,07:00,7.400,R,ugm-3 (FIDAS),0.42395,R,ugm-3,3.96251,R,ugm-3,4.61255,R,ugm-3,4.859,R,ugm-3 (Ref.eq)
06-01-2020,08:00,7.475,R,ugm-3 (FIDAS),0.77723,R,ugm-3,5.91701,R,ugm-3,7.10875,R,ugm-3,4.646,R,ugm-3 (Ref.eq)
06-01-2020,09:00,8.725,R,ugm-3 (FIDAS),1.41315,R,ugm-3,9.50023,R,ugm-3,11.66703,R,ugm-3,5.354,R,ugm-3 (Ref.eq)
06-01-2020,10:00,8.950,R,ugm-3 (FIDAS),1.27184,R,ugm-3,10.25956,R,ugm-3,12.20968,R,ugm-3,5.377,R,ugm-3 (Ref.eq)
06-01-2020,11:00,8.450,R,ugm-3 (FIDAS),0.77723,R,ugm-3,7.32791,R,ugm-3,8.51965,R,ugm-3,5.094,R,ugm-3 (Ref.eq)
06-01-2020,12:00,10.750,R,ugm-3 (FIDAS),0.91855,R,ugm-3,6.78563,R,ugm-3,8.19406,R,ugm-3,6.321,R,ugm-3 (Ref.eq)
06-01-2020,13:00,11.400,R,ugm-3 (FIDAS),1.09519,R,ugm-3,8.46833,R,ugm-3,10.14760,R,ugm-3,7.146,R,ugm-3 (Ref.eq)
06-01-2020,14:00,12.425,R,ugm-3 (FIDAS),1.34249,R,ugm-3,10.15122,R,ugm-3,12.20968,R,ugm-3,7.288,R,ugm-3 (Ref.eq)
06-01-2020,15:00,11.025,R,ugm-3 (FIDAS),1.48381,R,ugm-3,10.69426,R,ugm-3,12.96940,R,ugm-3,7.123,R,ugm-3 (Ref.eq)
06-01-2020,16:00,8.200,R,ugm-3 (FIDAS),2.43768,R,ugm-3,12.70464,R,ugm-3,16.44237,R,ugm-3,5.802,R,ugm-3 (Ref.eq)
06-01-2020,17:00,7.200,R,ugm-3 (FIDAS),1.23651,R,ugm-3,9.66255,R,ugm-3,11.55850,R,ugm-3,4.717,R,ugm-3 (Ref.eq)
06-01-2020,18:00,7.600,R,ugm-3 (FIDAS),1.51914,R,ugm-3,10.80288,R,ugm-3,13.13219,R,ugm-3,5.094,R,ugm-3 (Ref.eq)
06-01-2020,19:00,6.975,R,ugm-3 (FIDAS),0.81256,R,ugm-3,8.84743,R,ugm-3,10.09334,R,ugm-3,4.387,R,ugm-3 (Ref.eq)
06-01-2020,20:00,10.825,R,ugm-3 (FIDAS),0.81256,R,ugm-3,7.87065,R,ugm-3,9.11656,R,ugm-3,6.132,R,ugm-3 (Ref.eq)
06-01-2020,21:00,11.475,R,ugm-3 (FIDAS),0.63592,R,ugm-3,6.35075,R,ugm-3,7.32581,R,ugm-3,6.769,R,ugm-3 (Ref.eq)
06-01-2020,22:00,10.550,R,ugm-3 (FIDAS),0.31796,R,ugm-3,3.90796,R,ugm-3,4.39549,R,ugm-3,5.920,R,ugm-3 (Ref.eq)
06-01-2020,23:00,11.325,R,ugm-3 (FIDAS),0.17664,R,ugm-3,3.74478,R,ugm-3,4.01563,R,ugm-3,6.486,R,ugm-3 (Ref.eq)
06-01-2020,24:00,13.175,R,ugm-3 (FIDAS),0.17664,R,ugm-3,4.99288,R,ugm-3,5.26373,R,ugm-3,7.854,R,ugm-3 (Ref.eq)
07-01-2020,01:00,10.950,R,ugm-3 (FIDAS),0.14166,R,ugm-3,3.04626,R,ugm-3,3.26347,R,ugm-3,6.344,R,ugm-3 (Ref.eq)
07-01-2020,02:00,11.450,R,ugm-3 (FIDAS),0.18888,R,ugm-3,3.26395,R,ugm-3,3.55355,R,ugm-3,6.109,R,ugm-3 (Ref.eq)
07-01-2020,03:00,11.500,R,ugm-3 (FIDAS),0.07083,R,ugm-3,2.77413,R,ugm-3,2.88273,R,ugm-3,5.873,R,ugm-3 (Ref.eq)
07-01-2020,04:00,11.000,R,ugm-3 (FIDAS),0.14166,R,ugm-3,2.77431,R,ugm-3,2.99151,R,ugm-3,5.967,R,ugm-3 (Ref.eq)
07-01-2020,05:00,12.050,R,ugm-3 (FIDAS),0.28331,R,ugm-3,4.73275,R,ugm-3,5.16716,R,ugm-3,6.509,R,ugm-3 (Ref.eq)
07-01-2020,06:00,11.975,R,ugm-3 (FIDAS),0.35414,R,ugm-3,3.75389,R,ugm-3,4.29690,R,ugm-3,6.698,R,ugm-3 (Ref.eq)
07-01-2020,07:00,13.575,R,ugm-3 (FIDAS),0.53121,R,ugm-3,6.90903,R,ugm-3,7.72354,R,ugm-3,7.335,R,ugm-3 (Ref.eq)
07-01-2020,08:00,14.800,R,ugm-3 (FIDAS),0.88535,R,ugm-3,5.49576,R,ugm-3,6.85328,R,ugm-3,8.302,R,ugm-3 (Ref.eq)
07-01-2020,09:00,15.675,R,ugm-3 (FIDAS),2.69147,R,ugm-3,18.06471,R,ugm-3,22.19158,R,ugm-3,9.245,R,ugm-3 (Ref.eq)
07-01-2020,10:00,17.925,R,ugm-3 (FIDAS),2.90396,R,ugm-3,18.71795,R,ugm-3,23.17062,R,ugm-3,9.528,R,ugm-3 (Ref.eq)
07-01-2020,11:00,13.975,R,ugm-3 (FIDAS),1.16867,R,ugm-3,9.73899,R,ugm-3,11.53092,R,ugm-3,8.302,R,ugm-3 (Ref.eq)
07-01-2020,12:00,13.350,R,ugm-3 (FIDAS),1.80612,R,ugm-3,12.46017,R,ugm-3,15.22952,R,ugm-3,8.160,R,ugm-3 (Ref.eq)
07-01-2020,13:00,10.725,R,ugm-3 (FIDAS),1.16867,R,ugm-3,10.98998,R,ugm-3,12.78192,R,ugm-3,7.618,R,ugm-3 (Ref.eq)
07-01-2020,14:00,13.875,R,ugm-3 (FIDAS),1.38115,R,ugm-3,12.07835,R,ugm-3,14.19608,R,ugm-3,9.080,R,ugm-3 (Ref.eq)
07-01-2020,15:00,13.275,R,ugm-3 (FIDAS),1.16867,R,ugm-3,11.91463,R,ugm-3,13.70656,R,ugm-3,9.245,R,ugm-3 (Ref.eq)
07-01-2020,16:00,10.125,R,ugm-3 (FIDAS),1.69988,R,ugm-3,11.69842,R,ugm-3,14.30487,R,ugm-3,7.665,R,ugm-3 (Ref.eq)
07-01-2020,17:00,7.400,R,ugm-3 (FIDAS),1.16867,R,ugm-3,10.50047,R,ugm-3,12.29240,R,ugm-3,5.613,R,ugm-3 (Ref.eq)
07-01-2020,18:00,4.825,R,ugm-3 (FIDAS),1.16867,R,ugm-3,8.16165,R,ugm-3,9.95358,R,ugm-3,3.703,R,ugm-3 (Ref.eq)
07-01-2020,19:00,3.875,R,ugm-3 (FIDAS),1.16867,R,ugm-3,5.82283,R,ugm-3,7.61476,R,ugm-3,2.830,R,ugm-3 (Ref.eq)
07-01-2020,20:00,3.150,R,ugm-3 (FIDAS),0.63745,R,ugm-3,3.26509,R,ugm-3,4.24251,R,ugm-3,2.736,R,ugm-3 (Ref.eq)
07-01-2020,21:00,1.825,R,ugm-3 (FIDAS),0.42497,R,ugm-3,2.61186,R,ugm-3,3.26347,R,ugm-3,1.085,R,ugm-3 (Ref.eq)
07-01-2020,22:00,1.300,R,ugm-3 (FIDAS),0.38956,R,ugm-3,2.72055,R,ugm-3,3.31786,R,ugm-3,0.896,R,ugm-3 (Ref.eq)
07-01-2020,23:00,1.175,R,ugm-3 (FIDAS),0.10624,R,ugm-3,1.95835,R,ugm-3,2.12125,R,ugm-3,0.637,R,ugm-3 (Ref.eq)
07-01-2020,24:00,1.375,R,ugm-3 (FIDAS),0.10624,R,ugm-3,1.14248,R,ugm-3,1.30539,R,ugm-3,0.825,R,ugm-3 (Ref.eq)
08-01-2020,01:00,2.300,R,ugm-3 (FIDAS),0.04733,R,ugm-3,1.01776,R,ugm-3,1.09034,R,ugm-3,1.439,R,ugm-3 (Ref.eq)
08-01-2020,02:00,6.275,R,ugm-3 (FIDAS),0.09467,R,ugm-3,1.38132,R,ugm-3,1.52648,R,ugm-3,4.104,R,ugm-3 (Ref.eq)
08-01-2020,03:00,11.450,R,ugm-3 (FIDAS),0.07100,R,ugm-3,0.81793,R,ugm-3,0.92679,R,ugm-3,7.288,R,ugm-3 (Ref.eq)
08-01-2020,04:00,15.700,R,ugm-3 (FIDAS),0.07100,R,ugm-3,0.65438,R,ugm-3,0.76324,R,ugm-3,9.340,R,ugm-3 (Ref.eq)
08-01-2020,05:00,17.375,R,ugm-3 (FIDAS),0.14200,R,ugm-3,0.92713,R,ugm-3,1.14486,R,ugm-3,10.519,R,ugm-3 (Ref.eq)
08-01-2020,06:00,17.500,R,ugm-3 (FIDAS),0.14200,R,ugm-3,1.36327,R,ugm-3,1.58099,R,ugm-3,10.440,R,ugm-3 (Ref.eq)
08-01-2020,07:00,15.300,R,ugm-3 (FIDAS),0.14200,R,ugm-3,2.83522,R,ugm-3,3.05295,R,ugm-3,8.420,R,ugm-3 (Ref.eq)
08-01-2020,08:00,13.475,R,ugm-3 (FIDAS),0.31950,R,ugm-3,5.94312,R,ugm-3,6.43301,R,ugm-3,7.594,R,ugm-3 (Ref.eq)
08-01-2020,09:00,14.350,R,ugm-3 (FIDAS),0.78099,R,ugm-3,8.83363,R,ugm-3,10.03113,R,ugm-3,7.241,R,ugm-3 (Ref.eq)
08-01-2020,10:00,16.325,R,ugm-3 (FIDAS),1.84597,R,ugm-3,17.94052,R,ugm-3,20.77097,R,ugm-3,7.594,R,ugm-3 (Ref.eq)
08-01-2020,11:00,17.800,R,ugm-3 (FIDAS),1.24248,R,ugm-3,17.50294,R,ugm-3,19.40805,R,ugm-3,8.514,R,ugm-3 (Ref.eq)
08-01-2020,12:00,16.675,R,ugm-3 (FIDAS),1.20698,R,ugm-3,9.87047,R,ugm-3,11.72115,R,ugm-3,8.066,R,ugm-3 (Ref.eq)
08-01-2020,13:00,17.025,R,ugm-3 (FIDAS),1.84597,R,ugm-3,10.30814,R,ugm-3,13.13860,R,ugm-3,8.160,R,ugm-3 (Ref.eq)
08-01-2020,14:00,19.625,R,ugm-3 (FIDAS),2.02347,R,ugm-3,11.01729,R,ugm-3,14.11990,R,ugm-3,9.057,R,ugm-3 (Ref.eq)
08-01-2020,15:00,19.700,R,ugm-3 (FIDAS),1.98797,R,ugm-3,14.17919,R,ugm-3,17.22737,R,ugm-3,9.410,R,ugm-3 (Ref.eq)
08-01-2020,16:00,20.500,R,ugm-3 (FIDAS),5.21842,R,ugm-3,25.90810,R,ugm-3,33.90957,R,ugm-3,10.094,R,ugm-3 (Ref.eq)
08-01-2020,17:00,29.525,R,ugm-3 (FIDAS),8.76837,R,ugm-3,41.78107,R,ugm-3,55.22571,R,ugm-3,15.873,R,ugm-3 (Ref.eq)
08-01-2020,18:00,29.425,R,ugm-3 (FIDAS),4.57943,R,ugm-3,33.92056,R,ugm-3,40.94226,R,ugm-3,16.958,R,ugm-3 (Ref.eq)
08-01-2020,19:00,26.125,R,ugm-3 (FIDAS),9.54936,R,ugm-3,36.16769,R,ugm-3,50.80984,R,ugm-3,16.132,R,ugm-3 (Ref.eq)
08-01-2020,20:00,26.400,R,ugm-3 (FIDAS),2.83996,R,ugm-3,28.95534,R,ugm-3,33.30988,R,ugm-3,16.038,R,ugm-3 (Ref.eq)
08-01-2020,21:00,32.700,R,ugm-3 (FIDAS),3.94044,R,ugm-3,48.58410,R,ugm-3,54.62602,R,ugm-3,21.651,R,ugm-3 (Ref.eq)
08-01-2020,22:00,27.400,R,ugm-3 (FIDAS),3.40795,R,ugm-3,45.09373,R,ugm-3,50.31918,R,ugm-3,19.010,R,ugm-3 (Ref.eq)
08-01-2020,23:00,14.025,R,ugm-3 (FIDAS),0.46149,R,ugm-3,28.45898,R,ugm-3,29.16659,R,ugm-3,10.425,R,ugm-3 (Ref.eq)
08-01-2020,24:00,8.275,R,ugm-3 (FIDAS),0.28400,R,ugm-3,13.35734,R,ugm-3,13.79280,R,ugm-3,6.156,R,ugm-3 (Ref.eq)
09-01-2020,01:00,5.675,R,ugm-3 (FIDAS),0.14234,R,ugm-3,10.56461,R,ugm-3,10.78286,R,ugm-3,4.575,R,ugm-3 (Ref.eq)
09-01-2020,02:00,2.500,R,ugm-3 (FIDAS),0.14234,R,ugm-3,5.02746,R,ugm-3,5.24571,R,ugm-3,2.028,R,ugm-3 (Ref.eq)
09-01-2020,03:00,1.950,R,ugm-3 (FIDAS),0.21351,R,ugm-3,11.74870,R,ugm-3,12.07607,R,ugm-3,1.604,R,ugm-3 (Ref.eq)
09-01-2020,04:00,2.150,R,ugm-3 (FIDAS),0.14234,R,ugm-3,12.84139,R,ugm-3,13.05964,R,ugm-3,1.486,R,ugm-3 (Ref.eq)
09-01-2020,05:00,2.125,R,ugm-3 (FIDAS),0.07117,R,ugm-3,7.10373,R,ugm-3,7.21286,R,ugm-3,1.509,R,ugm-3 (Ref.eq)
09-01-2020,06:00,3.550,R,ugm-3 (FIDAS),0.17792,R,ugm-3,8.19683,R,ugm-3,8.46964,R,ugm-3,2.264,R,ugm-3 (Ref.eq)
09-01-2020,07:00,4.150,R,ugm-3 (FIDAS),0.64053,R,ugm-3,10.38359,R,ugm-3,11.36571,R,ugm-3,2.335,R,ugm-3 (Ref.eq)
09-01-2020,08:00,9.925,R,ugm-3 (FIDAS),0.78287,R,ugm-3,4.31855,R,ugm-3,5.51893,R,ugm-3,5.236,R,ugm-3 (Ref.eq)
09-01-2020,09:00,7.850,R,ugm-3 (FIDAS),2.20626,R,ugm-3,8.03747,R,ugm-3,11.42036,R,ugm-3,4.505,R,ugm-3 (Ref.eq)
09-01-2020,10:00,3.450,R,ugm-3 (FIDAS),1.74366,R,ugm-3,4.97643,R,ugm-3,7.65000,R,ugm-3,2.075,R,ugm-3 (Ref.eq)
09-01-2020,11:00,3.550,R,ugm-3 (FIDAS),1.45898,R,ugm-3,5.63150,R,ugm-3,7.86857,R,ugm-3,2.146,R,ugm-3 (Ref.eq)
09-01-2020,12:00,5.000,R,ugm-3 (FIDAS),1.42339,R,ugm-3,5.41285,R,ugm-3,7.59536,R,ugm-3,3.302,R,ugm-3 (Ref.eq)
09-01-2020,13:00,5.825,R,ugm-3 (FIDAS),1.20989,R,ugm-3,7.65273,R,ugm-3,9.50786,R,ugm-3,3.373,R,ugm-3 (Ref.eq)
09-01-2020,14:00,5.350,R,ugm-3 (FIDAS),0.71170,R,ugm-3,7.48768,R,ugm-3,8.57893,R,ugm-3,3.656,R,ugm-3 (Ref.eq)
09-01-2020,15:00,6.900,R,ugm-3 (FIDAS),0.88962,R,ugm-3,14.15451,R,ugm-3,15.51857,R,ugm-3,4.387,R,ugm-3 (Ref.eq)
09-01-2020,16:00,6.600,R,ugm-3 (FIDAS),0.56936,R,ugm-3,15.84771,R,ugm-3,16.72071,R,ugm-3,4.033,R,ugm-3 (Ref.eq)
09-01-2020,17:00,6.725,R,ugm-3 (FIDAS),0.64053,R,ugm-3,15.52002,R,ugm-3,16.50214,R,ugm-3,3.750,R,ugm-3 (Ref.eq)
09-01-2020,18:00,8.625,R,ugm-3 (FIDAS),1.95717,R,ugm-3,25.90513,R,ugm-3,28.90607,R,ugm-3,5.778,R,ugm-3 (Ref.eq)
09-01-2020,19:00,7.975,R,ugm-3 (FIDAS),0.32026,R,ugm-3,14.48108,R,ugm-3,14.97214,R,ugm-3,5.967,R,ugm-3 (Ref.eq)